Regional Weather Roundup
Issued by NWS Charleston, SC

Current Version | Previous Version | Graphics & Text | Print | Product List | Glossary On
Versions: 1 2 3 4 5 6 7 8 9 10 11 12 13 14 15 16 17 18 19 20 21 22 23 24 25 26 27 28 29 30 31 32 33 34 35 36 37 38 39 40 41 42 43 44 45 46 47 48 49 50
000 ASUS42 KCHS 230327 RWRCHS REGIONAL WEATHER ROUNDUP NATIONAL WEATHER SERVICE CHARLESTON SC 1000 PM EST SUN JAN 22 2017 NOTE: "FAIR" INDICATES FEW OR NO CLOUDS BELOW 12,000 FEET WITH NO SIGNIFICANT WEATHER AND/OR OBSTRUCTIONS TO VISIBILITY. NOT ALL STATIONS ARE QUALITY CONTROLLED. USE DATA WITH CAUTION... ESPECIALLY DEWPOINT OBSERVATIONS. SCZ027-030-031-034>040-042>050-230400- ...SOUTHEAST SOUTH CAROLINA... CITY SKY/WX TMP DP RH WIND PRES REMARKS N CHARLESTON CLOUDY 64 62 93 SE16 29.33S WATERFRONT PRK N/A 63 62 97 SE15 29.32F MOUNT PLEASANT MOCLDY 64 64 100 SE5 29.31F FOG JOHNS ISLAND MOCLDY 66 64 94 SE6 29.31F PINOPOLIS N/A 61 61 100 SE7 29.25S MONCKS CORNER MOCLDY 61 59 94 SE7 29.30F SUMMERVILLE CLOUDY N/A N/A N/A CALM 29.31F BEAUFORT MCAS PTCLDY 65 63 93 S7 29.31F BEAUFORT ARPT FAIR 63 61 94 S9 29.31S HILTON HEAD IS PTCLDY 64 64 100 S15G22 29.33S WALTERBORO CLOUDY 63 61 94 S12G17 29.30F ALLENDALE CLOUDY 63 61 94 S7 29.28R ...SOUTHERN MIDLANDS AND PEE DEE... CITY SKY/WX TMP DP RH WIND PRES REMARKS GEORGETOWN CLOUDY 61 59 94 E7 29.36F KINGSTREE LGT RAIN 59 57 94 E14G21 29.31F ORANGEBURG CLOUDY 60 59 96 SE9 29.29F BARNWELL CLOUDY 63 61 94 S7 29.29R AIKEN CLOUDY 57 55 94 SE7 29.30S MANNING CLOUDY 59 52 77 SE12G17 29.30F COLUMBIA CLOUDY 61 58 90 E20G28 29.25F SUMTER CLOUDY 60 58 91 E14G21 29.30F FLORENCE CLOUDY 60 59 96 E13 29.34F MYRTLE BEACH MOCLDY 61 57 88 E12 29.40F N MYRTLE BEACH CLOUDY 59 59 100 E8 29.40F $$ GAZ063-065-086>088-099>101-113>116-118-119-134>141-150-230400- ...SOUTHEAST GEORGIA... CITY SKY/WX TMP DP RH WIND PRES REMARKS SAVANNAH ARPT PTCLDY 64 60 87 SW10 29.34R HUNTER AAF CLEAR 64 64 100 SW10G17 29.32R FORT STEWART PTCLDY 61 52 71 W17G28 29.36R STATESBORO CLEAR 59 54 83 W9G26 29.36R SYLVANIA MOCLDY N/A N/A N/A W16G28 29.35R CLAXTON FAIR N/A N/A N/A SW6 29.37R ...CSRA...CENTRAL AND FAR SOUTHEAST GEORGIA... CITY SKY/WX TMP DP RH WIND PRES REMARKS THOMSON CLOUDY 60 57 88 W17G26 29.34R AUGUSTA-BUSH MOCLDY 63 59 87 SW7 29.27S AUGUSTA-DANIEL CLOUDY 62 57 83 SW13G21 29.28S SWAINSBORO FAIR 55 52 88 W10 29.38R VIDALIA CLEAR 57 55 94 SW10G16 29.39R EASTMAN FAIR 57 43 59 W7 29.41R HAZLEHURST FAIR 58 55 87 SW9 29.39R ALMA CLEAR 59 52 77 SW9 29.41R WAYCROSS CLEAR 61 55 80 W9 29.43R JESUP FAIR 61 50 67 E5 29.42R BAXLEY FAIR 61 55 82 SW7 29.40S BRUNSWICK PTCLDY 63 52 67 W16G28 29.44R SAINT SIMONS PTCLDY 63 45 51 W18G30 29.40R $$ SCZ027-028-034-036>038-045-046-048>050-GAZ119-141-230400- ...LAKE AND SUPPLEMENTAL COASTAL OBSERVATIONS... STATION/POSITION TIME TEMP WIND PRES WAVE SWELL AIR SEA DIR/SP/G HT/PER HT/PER/DIR (UTC) (F) (DEG/KT/KT) (MB) (FT/S) (FT/S/D) WINYAH BAY 0245 61 100/ 9 994.0F LAKE MURRAY 0230 60 90/ 16/ 24 991.5F ACE BASIN NERRS 0245 65 160/ 3 993.0F FORT PULASKI 0300 66 59 240/ 11/ 20 993.4 SAPELO ISLAND 0300 64 270/ 23 995.0 $$ ANZ835-935-AMZ111-154-330-350-352-354-370-450-454-472-230400- ...C-MAN AND BUOY OBSERVATIONS... STATION/POSITION TIME TEMP WIND PRES WAVE SWELL AIR SEA DIR/SP/G HT/PER HT/PER/DIR (UTC) (F) (DEG/KT/KT) (MB) (FT/S) (FT/S/D) BUOY 41004 0250 70 66 120/ 29/ 39 990.6F 6/ 8 3/170/ 8 BUOY 41008 0250 66 60 210/ 17/ 21 993.7R 4/ 5 2/360/14 FOLLY BEACH CMAN 0300 63 140/ 17/ 18 993.2F CAPERS NEARSHORE 0208 61 56 140/ 16/ 21 993.0F FRIPP NEARSHORE 0308 64 58 170/ 19/ 27 992.6F STATION/POSITION TIME TEMP WIND PRES WAVE SWELL AIR SEA DIR/SP/G HT/PER HT/PER/DIR (UTC) (F) (DEG/KT/KT) (MB) (FT/S) (FT/S/D) 5E ST. MARYS GA 0300 63 N/A 5/ 7 2/ 90/11 FRYING PAN BUOY 0310 69 66 130/ 19/ 25 995.4 BUOY 41025 0250 60 71 30/ 12/ 14 999.8F 4/13 3/ 80/13 CAPE LOOKOUT NC 0300 63 70/ 17/ 18 997.1F BUOY 41002 0250 70 71 360/ 4/ 8 1003.3R 8/ 8 8/220/ 8 BUOY 41010 NOT AVBL ST AUGUSTINE FL 0300 67 66 260/ 14/ 18 999.2R $$

USA.gov is the U.S. government's official web portal to all federal, state and local government web resources and services.